This is the latest recevied weather packets stored in our database for station/object N0EDB-13. If no packets are shown the sender has not sent any weather packets the latest 10 day(s).
| Time | Temp. | Humidity | Pressure | Rain* | Wind** | Luminosity | Snow |
|---|---|---|---|---|---|---|---|
| 1777603087 | 7.22° C | 62% | 1517.6 hPa | 0 mm | - | 0 W/m² | - |
| 1777602786 | 7.22° C | 61% | 1517.2 hPa | 0 mm | - | 0 W/m² | - |
| 1777602484 | 7.78° C | 61% | 1516.5 hPa | 0 mm | - | 0 W/m² | - |
| 1777602183 | 7.78° C | 60% | 1515.7 hPa | 0 mm | - | 0 W/m² | - |
| 1777601882 | 8.33° C | 59% | 1514.6 hPa | 0 mm | - | 0 W/m² | - |
| 1777601581 | 8.33° C | 59% | 1514.1 hPa | 0 mm | - | 0 W/m² | - |
| 1777601280 | 8.33° C | 59% | 1513.9 hPa | 0 mm | - | 1 W/m² | - |
| 1777600980 | 8.33° C | 59% | 1513.7 hPa | 0 mm | - | 1 W/m² | - |
| 1777600679 | 8.33° C | 59% | 1513.5 hPa | 0 mm | - | 2 W/m² | - |
| 1777600378 | 8.89° C | 58% | 1513.1 hPa | 0 mm | - | 4 W/m² | - |
| 1777600077 | 8.89° C | 57% | 1512.6 hPa | 0 mm | - | 5 W/m² | - |
| 1777599776 | 8.89° C | 57% | 1512.3 hPa | 0 mm | - | 8 W/m² | - |
| 1777599476 | 8.89° C | 57% | 1511.8 hPa | 0 mm | - | 12 W/m² | - |
| 1777599176 | 8.89° C | 55% | 1511.1 hPa | 0 mm | - | 14 W/m² | - |
| 1777598875 | 9.44° C | 55% | 1510.5 hPa | 0 mm | - | 16 W/m² | - |
| 1777598574 | 9.44° C | 54% | 1510 hPa | 0 mm | - | 17 W/m² | - |
| 1777598274 | 9.44° C | 54% | 1509.6 hPa | 0 mm | - | 19 W/m² | - |
| 1777597974 | 10° C | 53% | 1509.4 hPa | 0 mm | - | 24 W/m² | - |
| 1777597673 | 10° C | 53% | 1509.1 hPa | 0 mm | - | 34 W/m² | - |
| 1777597372 | 10° C | 54% | 1508.9 hPa | 0 mm | - | 45 W/m² | - |
| 1777597071 | 10° C | 53% | 1508.5 hPa | 0 mm | - | 56 W/m² | - |
| 1777596770 | 10° C | 52% | 1508.5 hPa | 0 mm | - | 67 W/m² | - |
| 1777596469 | 10° C | 52% | 1508.5 hPa | 0 mm | - | 74 W/m² | - |
| 1777596169 | 10° C | 53% | 1508.4 hPa | 0 mm | - | 73 W/m² | - |
| 1777595867 | 10° C | 52% | 1508 hPa | 0 mm | - | 72 W/m² | - |
* Rain latest hour (hover to see other rain measurements)
** Current wind speed in m/s (hover to see current wind gust speed)